Weather History for Santiago de Compostela, Spain

Change the Weather History Date:

Friday, June 14, 2013

  Actual Average Record
Temperature  
Mean Temperature 56 °F -  
Max Temperature 69 °F 71 °F 87 °F (2000)
Min Temperature 44 °F 52 °F 44 °F (2013)
Degree Days  
Heating Degree Days 8    
Growing Degree Days 6 (Base 50)    
Moisture  
Dew Point 49 °F    
Average Humidity 78    
Maximum Humidity 100    
Minimum Humidity 35    
Precipitation  
Precipitation 0.00 in - - ()
Sea Level Pressure  
Sea Level Pressure 30.10 in    
Wind  
Wind Speed 3 mph ()    
Max Wind Speed 12 mph    
Max Gust Speed -    
Visibility 3.2 miles    
Events Fog    
Averages and records for this station are not official NWS values.
T = Trace of Precipitation, MM = Missing Value Source: Averaged Metar Reports

Daily Weather History Graph

Daily Weather History Graph

Search for Another Location

Airport:

Trip Planner

Search our weather history database for the weather conditions in past years. The results will help you decide how hot, cold, wet, or windy it might be!

Date:

Astronomy

Jun. 14, 2013 Rise Set
Actual Time 6:54 AM CEST 10:13 PM CEST
Civil Twilight 6:19 AM CEST 10:48 PM CEST
Nautical Twilight 5:33 AM CEST 11:34 PM CEST
Astronomical Twilight 4:37 AM CEST 12:30 AM CEST
Moon 12:23 PM CEST (6/14) 1:06 AM CEST (6/14)
Length of Visible Light 16h 29m
Length of Day
15h 19m
Waxing Crescent, 28% of the Moon is Illuminated
Jun 14
Waxing Crescent
Jun 16
First Quarter
Jun 23
Full
Jun 30
Last Quarter
Jul 8
New

Hourly Weather History & Observations

Time (CEST) Temp. Dew Point Humidity Pressure Visibility Wind Dir Wind Speed Gust Speed Precip Events Conditions
12:00 AM 51.8 °F 51.8 °F 100% 30.15 in - Variable 1.2 mph - N/A   Clear
12:30 AM 51.8 °F 51.8 °F 100% 30.15 in - Variable 2.3 mph - N/A   Clear
1:00 AM 50.0 °F 50.0 °F 100% 30.15 in - Calm Calm - N/A   Clear
1:30 AM 50.0 °F 50.0 °F 100% 30.15 in - Calm Calm - N/A   Clear
2:00 AM 50.0 °F 50.0 °F 100% 30.12 in - Variable 1.2 mph - N/A   Clear
2:30 AM 48.2 °F 48.2 °F 100% 30.12 in - Calm Calm - N/A   Clear
3:00 AM 50.0 °F 50.0 °F 100% 30.09 in - East 4.6 mph - N/A   Clear
3:30 AM 48.2 °F 48.2 °F 100% 30.09 in - Calm Calm - N/A   Clear
4:00 AM 48.2 °F 48.2 °F 100% 30.09 in - Calm Calm - N/A   Clear
4:30 AM 48.2 °F 48.2 °F 100% 30.09 in - East 6.9 mph - N/A   Clear
5:00 AM 46.4 °F 46.4 °F 100% 30.09 in - Variable 1.2 mph - N/A   Clear
5:30 AM 44.6 °F 44.6 °F 100% 30.09 in 0.6 mi Variable 1.2 mph - N/A Fog Patches of Fog
6:00 AM 48.2 °F 48.2 °F 100% 30.06 in 0.2 mi Variable 1.2 mph - N/A Fog Fog
6:30 AM 48.2 °F 48.2 °F 100% 30.06 in 0.2 mi Calm Calm - N/A Fog Fog
7:00 AM 46.4 °F 46.4 °F 100% 30.06 in 0.1 mi Calm Calm - N/A Fog Fog
7:30 AM 46.4 °F 46.4 °F 100% 30.06 in 0.1 mi Calm Calm - N/A Fog Fog
8:00 AM 46.4 °F 46.4 °F 100% 30.09 in 0.1 mi Variable 1.2 mph - N/A Fog Fog
8:30 AM 48.2 °F 48.2 °F 100% 30.09 in 0.1 mi Variable 1.2 mph - N/A Fog Fog
9:00 AM 50.0 °F 50.0 °F 100% 30.09 in 0.1 mi Variable 2.3 mph - N/A Fog Fog
9:30 AM 51.8 °F 51.8 °F 100% 30.09 in 0.1 mi Calm Calm - N/A Fog Fog
10:00 AM 53.6 °F 53.6 °F 100% 30.09 in 0.6 mi Calm Calm - N/A Fog Fog
10:12 AM 55.4 °F 53.6 °F 94% 30.09 in 3.1 mi Calm Calm - N/A Fog Patches of Fog
10:30 AM 55.4 °F 55.4 °F 100% 30.09 in 6.2 mi Variable 2.3 mph - N/A Fog Patches of Fog
11:30 AM 62.6 °F 57.2 °F 82% 30.09 in - Variable 2.3 mph - N/A   Clear
12:00 PM 64.4 °F 53.6 °F 68% 30.09 in - SW 5.8 mph - N/A   Clear
12:30 PM 66.2 °F 53.6 °F 64% 30.09 in - SW 5.8 mph - N/A   Clear
1:00 PM 68.0 °F 53.6 °F 60% 30.09 in - WSW 6.9 mph - N/A   Clear
2:00 PM 68.0 °F 48.2 °F 49% 30.09 in - SW 9.2 mph - N/A   Clear
2:30 PM 68.0 °F 41.0 °F 37% 30.09 in 6.2 mi West 11.5 mph - N/A   Partly Cloudy
3:00 PM 68.0 °F 39.2 °F 35% 30.12 in 6.2 mi WSW 11.5 mph - N/A   Partly Cloudy
3:30 PM 69.8 °F 44.6 °F 40% 30.09 in - WSW 9.2 mph - N/A   Clear
4:00 PM 68.0 °F 46.4 °F 46% 30.09 in - SW 10.4 mph - N/A   Clear
4:30 PM 69.8 °F 41.0 °F 35% 30.09 in - WSW 10.4 mph - N/A   Clear
5:00 PM 69.8 °F 48.2 °F 46% 30.09 in - WSW 9.2 mph - N/A   Clear
5:30 PM 68.0 °F 46.4 °F 46% 30.12 in - WSW 9.2 mph - N/A   Clear
6:00 PM 66.2 °F 48.2 °F 52% 30.12 in - SW 11.5 mph - N/A   Clear
6:30 PM 68.0 °F 50.0 °F 52% 30.12 in 6.2 mi WSW 8.1 mph - N/A   Partly Cloudy
7:00 PM 66.2 °F 48.2 °F 52% 30.12 in 6.2 mi WSW 9.2 mph - N/A   Partly Cloudy
7:30 PM 66.2 °F 46.4 °F 49% 30.12 in 6.2 mi WSW 9.2 mph - N/A   Partly Cloudy
8:00 PM 64.4 °F 48.2 °F 56% 30.12 in - WSW 10.4 mph - N/A   Clear
8:30 PM 64.4 °F 48.2 °F 56% 30.12 in - WSW 5.8 mph - N/A   Clear
9:00 PM 62.6 °F 46.4 °F 55% 30.12 in - SW 8.1 mph - N/A   Clear
9:30 PM 60.8 °F 48.2 °F 63% 30.12 in 6.2 mi WSW 4.6 mph - N/A   Scattered Clouds
10:00 PM 59.0 °F 51.8 °F 77% 30.12 in 6.2 mi SSW 4.6 mph - N/A   Mostly Cloudy
11:00 PM 59.0 °F 53.6 °F 82% 30.15 in 6.2 mi WSW 3.5 mph - N/A   Mostly Cloudy
11:30 PM 57.2 °F 55.4 °F 94% 30.15 in 6.2 mi West 3.5 mph - N/A   Mostly Cloudy